Regional Weather Roundup
Issued by NWS

Home | Current Version | Previous Version | Graphics & Text | Print | Product List | Glossary On
Versions: 1 2 3 4 5 6 7 8 9 10 11 12 13 14 15 16 17 18 19 20 21 22 23 24 25 26 27 28 29 30 31 32 33 34 35 36 37 38 39 40 41 42 43 44 45 46 47 48 49 50
000
ASUS45 KBOU 262310
RWRCO

WEATHER ROUNDUP FOR COLORADO
NATIONAL WEATHER SERVICE DENVER/BOULDER CO
500 PM MDT THU APR 26 2018

NOTE: "FAIR" INDICATES FEW OR NO CLOUDS BELOW 12000 FEET WITH NO
SIGNIFICANT WEATHER AND/OR OBSTRUCTIONS TO VISIBILITY.

COZ001>005-013-030-031-270000-
...NORTHWEST COLORADO...

CITY           SKY/WX    TMP DP  RH WIND       PRES   REMARKS
CRAIG          FAIR      63  24  22 VRB5      30.23F
HAYDEN         FAIR      58  21  24 W6        30.25F
MEEKER         FAIR      63  16  16 NE10      30.22F
RANGELY        FAIR      67  23  19 E12       30.19F
RABBIT EARS PA FAIR      43  18  36 NW7       30.39S
STEAMBOAT SPGS FAIR      60  13  16 NW6       30.24S
WALDEN         FAIR      54   7  15 N15G21    30.30S
$$

COZ006>008-011-270000-
...WEST CENTRAL VALLEYS...

CITY           SKY/WX    TMP DP  RH WIND       PRES   REMARKS
GRAND JUNCTION FAIR      74  22  14 W10       30.09F
MONTROSE       FAIR      69  13  11 N7        30.16F
EAGLE          FAIR      65  12  12 NW9       30.21F
RIFLE          FAIR      69  18  14 VRB5      30.15F
DELTA          FAIR      77  16  10 SW20G25   30.10F
NUCLA          FAIR      72   7   8 N3        30.16S
$$

COZ017>023-064>068-270000-
...SOUTHWEST COLORADO...

CITY           SKY/WX    TMP DP  RH WIND       PRES   REMARKS
DURANGO        FAIR      74  -6   4 NE6       30.06F
CORTEZ         FAIR      77  -1   5 NW9G23    30.07F
PAGOSA SPRINGS FAIR      70  -8   4 SW14      30.14F
TELLURIDE      FAIR      58   8  14 N5        30.29F
WOLF CREEK PAS FAIR      43   9  24 NW5       30.44S
$$

COZ009-010-012-014-032>034-037-058>063-270000-
...CENTRAL COLORADO...

CITY           SKY/WX    TMP DP  RH WIND       PRES   REMARKS
ASPEN          FAIR      60  15  17 VRB7      30.22F
BUENA VISTA    FAIR      61   6  11 NW6G17    30.21R
COPPER MTN     NOT AVBL
BERTHOUD PASS  FAIR      30  21  69 NW25G32   30.41S WCI  16
COTTONWOOD PAS FAIR      61   9  12 CALM      30.31R
GUNNISON       FAIR      62   9  12 N12       30.19F
GRANBY         FAIR      54  11  18 NW9       30.28S
KREMMLING      FAIR      63   7  11 N12       30.26S
LEADVILLE      FAIR      49  12  22 W12       30.31R
MONARCH PASS   FAIR      41   9  26 E7        30.50S
SALIDA         FAIR      64  22  20 SE16G26   30.26R
SUNLIGHT       FAIR      41  14  33 CALM      30.42S
WILKERSON PASS FAIR      34  25  69 E6        30.40S WCI  29
$$

COZ069>075-270000-
...SAN LUIS VALLEY/SANGRE DE CRISTO MOUNTAINS...

CITY           SKY/WX    TMP DP  RH WIND       PRES   REMARKS
ALAMOSA        FAIR      60  21  22 SE23G31   30.18R
DEL NORTE      FAIR      65   8  10 E8G17     30.17S
LA VETA PASS   FAIR      37  25  60 NE14G24   30.45S
SAGUACHE       NOT AVBL
$$

COZ035-036-038>040-270000-
...NORTHERN COLORADO FRONT RANGE...

CITY           SKY/WX    TMP DP  RH WIND       PRES   REMARKS
DENVER INTL AP FAIR      58  24  27 NE12G22   30.24F
AURORA         MOSUNNY   58  23  25 N7        30.25F
FRONT RANGE AP SUNNY     59  25  27 N12G24    30.25F
ERIE MUNI ARPT FAIR      60  23  24 E7        30.28F
BOULDER MUN AP FAIR      59  27  29 NE3       30.23F
CENTENNIAL     FAIR      56  25  30 N14G26    30.25F
BROOMFIELD     MOSUNNY   57  25  28 NE8       30.25F
FORT COLLINS   FAIR      63  25  23 VRB6      30.23S
LONGMONT       FAIR      64  27  24 N6        30.25S
$$

COZ041-046-047-076>085-087-088-270000-
...PIKES PEAK/PALMER DIVIDE AND SOUTHERN FOOTHILLS...

CITY           SKY/WX    TMP DP  RH WIND       PRES   REMARKS
COLO. SPRINGS  FAIR      57  25  29 N21G30    30.24F
A. F. ACADEMY  FAIR      54  23  30 N15       30.25S
SCHRIEVER AFB  NOT AVBL
CHEYENNE MTN   FAIR      50  25  38 N13G22    30.21R
ELLICOTT         N/A    N/A N/A N/A N16G30    30.24S
FALCON         FAIR      53  21  28 N15G24    30.28R
FORT CARSON    FAIR      59  26  28 N15G22    30.22R
LIMON          FAIR      56  24  29 N21G30    30.24S
MONUMENT HILL  FAIR      46  23  39 N17G24    30.29S
CANON CITY     FAIR      63  32  31 E10G22    30.21S
WALSENBURG     NOT AVBL
TRINIDAD       FAIR      58  23  26 NE14G26   30.24F
$$

COZ042>045-048>051-090-091-270000-
...NORTHEAST COLORADO...

CITY           SKY/WX    TMP DP  RH WIND       PRES   REMARKS
GREELEY ARPT   FAIR      61  23  23 CALM      30.23S
AKRON          FAIR      58  27  30 N18G30    30.22F
BURLINGTON     FAIR      60  29  30 N18G28    30.19S
WRAY           FAIR      63  27  25 N21G28    30.19S
YUMA           FAIR      59  19  21 N15G24    30.20F
STERLING       NOT AVBL
HOLYOKE        FAIR      63  28  27 N12       30.19S
FORT MORGAN    FAIR      62  20  20 N12G18    30.23F
$$

COZ086-089-092>099-270000-
...SOUTHEAST COLORADO...

CITY           SKY/WX    TMP DP  RH WIND       PRES   REMARKS
PUEBLO         FAIR      65  25  22 NE16G24   30.21S
LA JUNTA       PTSUNNY   64  24  21 N15G23    30.20R
LAMAR          FAIR      64  25  22 N21G31    30.16R
SPRINGFIELD      N/A     59  25  27 N26G40    30.16R
$$



USA.gov is the U.S. government's official web portal to all federal, state and local government web resources and services.